Regional Weather Roundup
Issued by NWS Goodland, KS

Home | Current Version | Previous Version | Graphics & Text | Print | Product List | Glossary Off
Versions: 1 2 3 4 5 6 7 8 9 10 11 12 13 14 15 16 17 18 19 20 21 22 23 24 25 26 27 28 29 30 31 32 33 34 35 36 37 38 39 40 41 42 43 44 45 46 47 48 49 50

031
ASUS43 KGLD 102308
RWRGLD

GOODLAND FORECAST AREA HOURLY WEATHER ROUNDUP
NATIONAL WEATHER SERVICE GOODLAND KS
400 PM MST WED FEB 10 2016

...OFFICIAL OBSERVATIONS...

CITY           SKY/WX    TMP DP  RH WIND       PRES   REMARKS
GOODLAND KS    SUNNY     57  32  38 NW8       30.03R
HILL CITY KS   SUNNY     54  32  43 NW14      29.95S
IMPERIAL NEB   SUNNY     49  30  48 W13       29.99R
MCCOOK NEB     CLOUDY    49  31  49 W3        29.96R
AKRON CO       CLOUDY    51  31  46 W8        30.05R
BURLINGTON CO  SUNNY     49  31  49 W8        30.04S
LIMON CO       SUNNY     44  30  57 N6        30.09S
$$

...UNOFFICIAL OBSERVATIONS...

CITY           SKY/WX    TMP DP  RH WIND       PRES   REMARKS
$$




USA.gov is the U.S. government's official web portal to all federal, state and local government web resources and services.